Flag for Canada Weather past 2 weeks in Stephenville, Newfoundland and Labrador, Canada

45 °F

Passing clouds.

Feels Like: 40 °F
Forecast: 42 / 51 °F
Wind: 9 mph from Northwest

Location: Stephenville

Current Time: Oct 9, 2015 at 4:20:58 AM

Latest Report: Oct 9, 2015 at 3:30 AM

Visibility: 15 mi

Pressure: 29.98 "Hg

Humidity: 57%

Dew point: 30 °F

Location of StephenvilleLocation

Historic Weather in Stephenville — Graph


Stephenville temperature yesterday

Maximum temperature yesterday: 55 °F (at 11:30 AM)
Minimum temperature yesterday: 46 °F (at 7:30 PM)
Average temperature yesterday: 52 °F

Past Weeks' High & Low Weather Summary

High68 °F (Sep 30, 2:30 AM)100% (Sep 30, 2:30 PM)30.48 "Hg (Sep 30, 2:30 PM)
Low36 °F (Oct 4, 4:30 AM)43% (Sep 26, 11:30 AM)29.64 "Hg (Oct 8, 5:30 AM)
Average52 °F78%30.10 "Hg
* Reported Sep 24 2:30 AM — Oct 9 2:30 AM, Stephenville, Weather by CustomWeather, © 2015

Note: Actual official high and low records may vary slightly from our data, if they occured in-between our weather recording intervals... More about our weather records


Stephenville weather history for previous 24 hours

Time TempWeatherWind HumidityBarometerVisibility
2:30 AM
Fri, Oct 9
46 °FPassing clouds.9 mph62%29.96 "Hg15 mi
1:30 AM46 °FPassing clouds.10 mph66%29.95 "Hg15 mi
12:30 AM46 °FPassing clouds.12 mph71%29.95 "Hg15 mi
11:30 PM
Thu, Oct 8
46 °FPassing clouds.7 mph71%29.94 "Hg15 mi
10:30 PM48 °FPassing clouds.18 mph58%29.92 "Hg15 mi
9:30 PM48 °FPassing clouds.16 mph58%29.90 "Hg15 mi
8:30 PM48 °FSprinkles. Passing clouds.14 mph66%29.89 "Hg15 mi
7:30 PM46 °FSprinkles. Passing clouds.14 mph76%29.87 "Hg15 mi
6:30 PM48 °FPartly sunny.18 mph71%29.84 "Hg15 mi
5:30 PM50 °FPartly sunny.18 mph62%29.82 "Hg15 mi
4:30 PM50 °FSprinkles. Partly sunny.17 mph67%29.80 "Hg15 mi
3:30 PM52 °FPartly sunny.17 mph67%29.78 "Hg15 mi
2:30 PM50 °FSprinkles. Partly sunny.20 mph82%29.77 "Hg15 mi
1:30 PM55 °FPartly sunny.21 mph59%29.75 "Hg15 mi
12:30 PM54 °FPartly sunny.20 mph63%29.75 "Hg15 mi
11:30 AM55 °FPassing clouds.18 mph55%29.73 "Hg15 mi
10:30 AM54 °FPassing clouds.20 mph63%29.72 "Hg15 mi
9:30 AM52 °FScattered clouds.18 mph72%29.70 "Hg15 mi
8:30 AM52 °FPartly sunny.15 mph82%29.67 "Hg15 mi
7:30 AM54 °FPassing clouds.13 mph88%29.65 "Hg15 mi
6:30 AM54 °FPassing clouds.14 mph94%29.64 "Hg15 mi
5:30 AM54 °FOvercast.15 mph94%29.64 "Hg15 mi
4:30 AM54 °FOvercast.16 mph94%29.65 "Hg15 mi
4:21 AM54 °FOvercast.14 mph94%29.65 "Hg15 mi
Weather by CustomWeather, © 2015

See weather overviewHow to use our weather pages